Location: Bremen
(53.0793°N, 8.8017°E)
Time: 08:39:47
(UTC+01:00)

ISS - Visible Passes

Search period start: 27 January 2021 00:00
Search period end: 06 February 2021 00:00
Orbit: 418 x 421 km, 51.6° (Epoch: 27 January)

Date Brightness Start Highest point End Pass type
(mag) Time Alt. Az. Time Alt. Az. Time Alt. Az.
27 Jan -3.4 18:00:06 10° WSW 18:03:26 57° SSE 18:06:15 14° E visible
27 Jan -2.6 19:36:46 10° W 19:39:13 43° WSW 19:39:13 43° WSW visible
28 Jan -3.7 18:49:27 10° W 18:52:49 70° S 18:53:50 41° ESE visible
28 Jan -0.5 20:26:15 10° W 20:26:49 14° W 20:26:49 14° W visible
29 Jan -3.6 18:02:07 10° W 18:05:30 70° S 18:08:28 13° E visible
29 Jan -2.5 19:38:53 10° W 19:41:27 40° WSW 19:41:27 40° WSW visible
30 Jan -3.4 18:51:31 10° W 18:54:52 58° SSW 18:56:07 33° SE visible
30 Jan -0.5 20:28:34 10° W 20:29:06 13° WSW 20:29:06 13° WSW visible
31 Jan -3.4 18:04:09 10° W 18:07:31 66° S 18:10:49 10° ESE visible
31 Jan -2.1 19:41:02 10° W 19:43:49 29° SW 19:43:49 29° SW visible
01 Feb -2.6 18:53:36 10° W 18:56:47 38° SSW 18:58:36 21° SE visible
02 Feb -2.9 18:06:11 10° W 18:09:28 48° SSW 18:12:44 10° ESE visible
02 Feb -1.3 19:43:32 10° WSW 19:45:45 16° SW 19:46:29 15° SSW visible
03 Feb -1.5 18:55:49 10° W 18:58:31 22° SSW 19:01:13 10° SSE visible
04 Feb -1.8 18:08:15 10° W 18:11:15 29° SSW 18:14:15 10° SE visible
05 Feb -0.6 18:58:54 10° WSW 19:00:04 11° SW 19:01:14 10° SSW visible
